Location: Sungai Liu
(2.3667°N, 113.8667°E)
Time: 13:44:06
(UTC+00:00)

ARIANE 5 R/B - Pass Details

Date: 20 May 2022
Orbit: 683 x 36104 km, 5.4° (Epoch: 06 July)

Event Time Altitude Azimuth Distance (km) Brightness Sun altitude
Exits shadow 21:48:14 - 265° (W) 11,198 8.3 -6.9°
Reaches altitude 10° 21:57:43 10° 265° (W) 7,739 7.5 -4.7°
Maximum altitude 22:13:49 88° 354° (N) 1,161 4.0 -0.9°
Drops below altitude 10° 22:18:08 10° 84° (E) 2,265 7.3 0.1°
Sets 22:19:46 0° 85° (E) 3,047 8.1 0.5°
